Regional Weather Roundup
Issued by NWS

Home | Current Version | Previous Version | Text Only | Print | Product List | Glossary On
Versions: 1 2 3 4 5 6 7 8 9 10 11 12 13 14 15 16 17 18 19 20 21 22 23 24 25 26 27 28 29 30 31 32 33 34 35 36 37 38 39 40 41 42 43 44 45 46 47 48 49 50
000
ASUS43 KMPX 300401
RWRMN
WEATHER ROUNDUP FOR MINNESOTA
NATIONAL WEATHER SERVICE TWIN CITIES/CHANHASSEN MN
1100 PM CDT SAT AUG 29 2015


NOTE: "FAIR" INDICATES FEW OR NO CLOUDS BELOW 12,000 FEET WITH NO
SIGNIFICANT WEATHER AND/OR OBSTRUCTIONS TO VISIBILITY. N/A MEANS
CURRENT SKY AND/OR WEATHER CONDITIONS ARE NOT AVAILABLE.

MNZ060>063-068>070-300500-
   Twin Cities Metro

CITY           SKY/WX    TMP DP  RH WIND       PRES   REMARKS
TWIN CITIES    MOCLDY    68  63  84 S5        30.01F
ST PAUL        CLEAR     65  63  93 SE6       30.01F
CRYSTAL        CLEAR     67  63  87 S5        29.99F
BLAINE         CLEAR     66  64  94 S5        30.01R
LAKEVILLE      CLEAR     61  61 100 CALM      30.02F FOG
EDEN PRAIRIE   CLEAR     64  62  93 S7        30.00F
SOUTH ST PAUL  CLEAR     66  64  91 CALM      30.01S
LAKE ELMO      FAIR      63  61  94 S5        30.03S
$$
MNZ001>005-007-008-013>017-022>024-027-028-300500-
   Northwest Minnesota

CITY           SKY/WX    TMP DP  RH WIND       PRES   REMARKS
BEMIDJI        PTCLDY    66  61  84 S7        29.92F
HALLOCK        PTCLDY    66  64  94 S9        29.79F
ROSEAU         PTCLDY    70  64  83 S13       29.82F
WARROAD        PTCLDY    70  64  83 S7        29.83F
THIEF RVR FALL PTCLDY   N/A N/A N/A S9        29.85F
CROOKSTON      CLEAR     70  64  83 S15       29.85S
FOSSTON        CLEAR     64  61  88 S10       29.90F
DETROIT LAKES  PTCLDY    68  63  83 S12       29.93F
MOORHEAD       PTCLDY    70  64  83 S13       29.88F
PARK RAPIDS    FAIR      66  61  84 S8        29.95F
MAHNOMEN       FAIR      66  63  87 S5        29.90S
$$
MNZ006-009>011-018-025>026-300500-
   North Central Minnesota

CITY           SKY/WX    TMP DP  RH WIND       PRES   REMARKS
BAUDETTE       PTCLDY    67  65  93 S8        29.86F
FLAG ISLAND    CLEAR     68  66  94 S17       29.81F
INTL FALLS     MOCLDY    67  64  90 VRB5      29.90F
WASKISH        PTCLDY    68  64  88 S6        29.89F
BIG FORK       MOCLDY    66  63  88 S6        29.95F
LONGVILLE      PTCLDY    64  63  94 S5        29.96F
GRAND RAPIDS     N/A     63  59  88 S6        29.97F
ORR            MOCLDY    64  61  88 S5        29.93F
COOK           MOCLDY    66  63  88 CALM      29.97S
WALKER         FAIR      66  62  86 S7G16     29.94F
$$
MNZ012-019>021-037-300500-
   Northeast Minnesota

CITY           SKY/WX    TMP DP  RH WIND       PRES   REMARKS
DULUTH         PTCLDY    65  61  87 SW10      29.98F
ELY            CLEAR     63  61  94 S3        29.97S
HIBBING        MOCLDY    64  61  90 VRB3      29.98R
EVELETH        PTCLDY    63  61  94 SW5       29.98F
DULUTH HARBOR  CLEAR     66  63  88 SW8       29.97S
TWO HARBORS    CLEAR     66  61  82 CALM      29.96S
SILVER BAY     CLEAR     63  61  94 CALM      29.96S
GRAND MARAIS     N/A     55  53  93 CALM      29.96S
G MARAIS ARPRT CLOUDY    63  59  88 CALM      30.01S
$$
MNZ029>031-032-039>041-046>048-054>057-064-300500-
   West Central Minnesota

CITY           SKY/WX    TMP DP  RH WIND       PRES   REMARKS
FERGUS FALLS   PTCLDY    66  66 100 S10       29.92F
WHEATON        CLEAR     64  63  94 SE10      29.92F
MORRIS         CLEAR     64  64 100 SE8       29.94F
ALEXANDRIA     CLEAR     65  63  93 S9        29.98F
ELBOW LAKE     FAIR      65  64  96 S13       29.93F
WADENA         FAIR      63  61  94 S5        29.95S
GLENWOOD       CLEAR     64  63  94 S9        29.98S
APPLETON       CLEAR     66  63  88 S8        29.95F
BENSON         CLEAR     64  63  94 S7        29.96F
ORTONVILLE     CLEAR     64  63  94 SE8       29.94F
MADISON        CLEAR     64  63  94 S6        29.96S
WILLMAR        FAIR      64  63  94 S7        29.99F
$$
MNZ033>034-036-042>043-049>051-058-059-300500-
   Central Minnesota

CITY           SKY/WX    TMP DP  RH WIND       PRES   REMARKS
ST CLOUD       CLEAR     61  60  97 S7        29.99S
SAUK CENTRE    FAIR      62  61  97 SE6       29.98S
PAYNESVILLE    CLEAR     64  62  95 SE7       29.99S
AITKIN         MOCLDY    66  61  82 SW5       29.98R
PINE RIVER     CLEAR    N/A N/A N/A SE6       30.00F
BRAINERD       PTCLDY    62  61  96 S5        29.99R
STAPLES        CLEAR     63  61  94 S5        29.97S
LONG PRAIRIE   MOCLDY    61  61 100 SE7       29.98S
LITTLE FALLS   PTCLDY    63  59  88 S6        29.99S
LITCHFIELD     CLEAR     64  64 100 S3        30.01S
BUFFALO        CLEAR     64  60  89 S3        30.01F
MAPLE LAKE     CLEAR     63  62  95 CALM      30.01F
$$
MNZ037-044-045-052-053-300500-
   East Central Minnesota

CITY           SKY/WX    TMP DP  RH WIND       PRES   REMARKS
PRINCETON      CLEAR     63  61  94 SE7       30.00F
MORA           PTCLDY    61  59  94 S3        30.01F
CAMBRIDGE      PTCLDY    63  55  77 CALM      30.00R HAZE
RUSH CITY      MOCLDY    62  60  93 S3        30.01R
MOOSE LAKE     MOCLDY    63  61  94 CALM      29.98S
HINCKLEY       FAIR      63  61  94 CALM      30.00S
CLOQUET        PTCLDY    64  61  88 S5        29.98F
MCGREGOR       CLOUDY    63  61  94 S5        29.99S
$$
MNZ071>073-080-081-089-090-097-098-300500-
   Southwest Minnesota

CITY           SKY/WX    TMP DP  RH WIND       PRES   REMARKS
MONTEVIDEO     CLEAR     66  64  94 S6        29.99S
GRANITE FALLS  CLEAR     64  63  97 SE5       30.00S
CANBY          CLEAR     62  60  93 SE6       29.97F
MARSHALL       CLEAR     64  59  82 S10       30.00S
REDWOOD FALLS  CLEAR     64  62  93 S9        29.99F
OLIVIA         CLEAR     61  59  94 SE7       29.99F
PIPESTONE      CLEAR     63  63 100 S7        30.02S
WINDOM         CLEAR     64  63  94 S5        30.03S
WORTHINGTON    CLEAR     63  59  88 S9        30.03S
JACKSON        CLEAR     63  61  94 S10       30.04S
TRACY          PTCLDY    66  64  92 S8        30.00S
SLAYTON        CLEAR     61  61 100 CALM      30.02F
$$
MNZ065>067-074>077-082>085-091>093-300500-
   South Central Minnesota

CITY           SKY/WX    TMP DP  RH WIND       PRES   REMARKS
MANKATO        CLEAR     63  59  88 S7        30.03S
NEW ULM        CLEAR     61  61 100 S5        30.02S
ST JAMES       CLEAR     63  63 100 S5        30.04S
FAIRMONT       CLEAR     59  54  82 S6        30.04S
GLENCOE        CLEAR     64  63  97 S5        30.01S
FARIBAULT      CLEAR     63  61  94 S3        30.04S FOG
OWATONNA       CLEAR     63  61  94 S3        30.04F FOG
WASECA         FOG       59  57  94 S3        30.06S VSB 1/4
ALBERT LEA     FOG       63  63 100 CALM      30.05F VSB 1/2
$$
MNZ078>079-086>088-094>096-300500-
   Southeast Minnesota

CITY           SKY/WX    TMP DP  RH WIND       PRES   REMARKS
ROCHESTER      PTCLDY    60  59  96 S6        30.07R FOG
RED WING       CLEAR     64  63  94 SE6       30.02F
STANTON        CLEAR     63  60  91 CALM      30.02S
DODGE CENTER   CLEAR     61  59  94 S6        30.06S
WINONA         CLEAR     61  59  94 CALM      30.06R
AUSTIN         CLOUDY    66  63  88 CALM      30.06S
PRESTON        CLEAR     60  58  94 CALM      30.07R
$$
ABBREVIATIONS USED IN REMARKS
   TC - TEMPERATURES IN CELSIUS
  WCI - WIND CHILL INDEX
   HX - HEAT INDEX
  VSB - VISIBILITY
$$



USA.gov is the U.S. government's official web portal to all federal, state and local government web resources and services.